Regional Weather Roundup
Issued by NWS Cleveland, OH

Home | Current Version | Previous Version | Graphics & Text | Print | Product List | Glossary On
Versions: 1 2 3 4 5 6 7 8 9 10 11 12 13 14 15 16 17 18 19 20 21 22 23 24 25 26 27 28 29 30 31 32 33 34 35 36 37 38 39 40 41 42 43 44 45 46 47 48 49 50
000
ASUS41 KCLE 082100
RWRCLE
OHIO REGIONAL WEATHER ROUNDUP
NATIONAL WEATHER SERVICE WILMINGTON, OH
400 PM EST MON FEB 08 2016

NOTE: "FAIR" INDICATES FEW OR NO CLOUDS BELOW 12,000 FEET WITH NO
SIGNIFICANT WEATHER AND/OR OBSTRUCTIONS TO VISIBILITY.

OHZ001>008-015>018-024>027-034-035-043-044-082200-
   NORTHWEST OHIO

CITY           SKY/WX    TMP DP  RH WIND       PRES   REMARKS
DEFIANCE       CLOUDY    40  27  59 NW10G18   29.61R
FINDLAY        CLOUDY    39  31  72 NW7       29.58R
TOLEDO EXPRESS CLOUDY    41  25  53 W13       29.57R
TOLEDO EXEC    CLOUDY    42  27  55 W8        29.58R
LIMA           CLOUDY    38  29  70 W14       29.59R
$$

OHZ009>014-019>023-028>033-038-089-082200-
   NORTHEAST OHIO

CITY           SKY/WX    TMP DP  RH WIND       PRES   REMARKS
CLE-HOPKINS    LGT SNOW  33  30  88 W9        29.59R FOG     WCI  25
CLE-LAKEFRONT  LGT SNOW  33  32  96 W13       29.56S VSB 3/4 WCI  24
CUY CO. ARPT   LGT SNOW  34  32  93 W7        29.56R VSB 1   WCI  28
LORAIN-ELYRIA  CLOUDY    34  31  88 NW3       29.58R
ASHTABULA      LGT RAIN  37  34  89 S7        29.55R
AKRON-CANTON   LGT SNOW  33  31  92 W8        29.55R VSB 1   WCI  26
WOOSTER        NOT AVBL
MANSFIELD      CLOUDY    35  33  92 CALM      29.56R FOG
YOUNGSTOWN     LGT SNOW  36  33  89 S9        29.54S FOG
$$

OHZ042-051>053-060>062-070>072-077>081-082200-
  SOUTHWEST OHIO

CITY           SKY/WX    TMP DP  RH WIND       PRES   REMARKS
CINC-COVINGTON CLOUDY    36  33  89 SW7       29.64R
CINC-LUNKEN    CLOUDY    34  32  92 VRB5      29.66S WCI  30
HAMILTON       CLOUDY    36  31  82 SW9       29.65R
DAYTON         NOT AVBL
WRIGHT-PAT AFB PTSUNNY   39  32  75 N5        29.60R
DAYTON GENERAL CLOUDY    39  28  64 W7        29.60R
WILMINGTON     CLOUDY    38  32  79 W7        29.60S
$$

OHZ036-037-039>041-045>050-054>059-063>069-073>076-082>088-082200-
  CENTRAL AND SOUTHEAST OHIO

CITY           SKY/WX    TMP DP  RH WIND       PRES   REMARKS
COLUMBUS       LGT SNOW  34  34 100 CALM      29.60R FOG
OSU AIRPORT    CLOUDY    37  34  89 W7        29.59S
BOLTON FIELD   CLOUDY    36  34  93 NW3       29.61R
RICKENBACK AFB NOT AVBL
NEWARK         LGT SNOW  35  32  88 SW5       29.59R FOG
MARION         PTSUNNY   39  27  62 W10       29.58R
LANCASTER      CLOUDY    35  32  88 W5        29.62R
ZANESVILLE     CLOUDY    38  33  82 SW3       29.60R
NEW PHILLY     MIX PCPN  35  33  92 W5        29.58R
$$




USA.gov is the U.S. government's official web portal to all federal, state and local government web resources and services.